QPF
0.01 0.01 0.01 0.01 0.01 0.02 0.02 0.01 0.01 0.01 0.02 0.02 0.04 0.04 0.03 0.03 0.06 0.09 0.02 0.02 0.04 0.04 0.03 0.02 0.03 0.04 0.03 0.04 0.05 0.03 0.02 0.01 0.02 0.03 0.03 0.03 0.02 0.02 0.03 0.05 0.05 0.05 0.02 0.01
0.01 0.00 0.01 0.01 0.01 0.01 0.01 0.01 0.01 0.02 0.02 0.01 0.02 0.03 0.02 0.03 0.04 0.04 0.03 0.02 0.02 0.03 0.03 0.02 0.01 0.02 0.03 0.06 0.07 0.05 0.03 0.02 0.02 0.02 0.02 0.01 0.01 0.01 0.01 0.03 0.04 0.03 0.02 0.01
0.01 0.00 0.01 0.01 0.01 0.01 0.01 0.01 0.01 0.02 0.02 0.02 0.02 0.02 0.01 0.01 0.02 0.01 0.01 0.01 0.02 0.04 0.03 0.03 0.06 0.04 0.04 0.08 0.13 0.09 0.07 0.05 0.04 0.03 0.02 0.02 0.01 0.01 0.02 0.03 0.03 0.02 0.01 0.01
0.00 0.00 0.00 0.00 0.01 0.00 0.00 0.01 0.01 0.02 0.02 0.03 0.02 0.03 0.02 0.01 0.01 0.01 0.01 0.00 0.01 0.03 0.04 0.02 0.03 0.02 0.02 0.03 0.07 0.12 0.14 0.11 0.07 0.05 0.03 0.02 0.01 0.01 0.01 0.01 0.01 0.02 0.01 0.01
0.00 0.00 0.00 0.00 0.00 0.00 0.00 0.00 0.01 0.01 0.01 0.03 0.02 0.02 0.02 0.02 0.02 0.02 0.01 0.01 0.00 0.01 0.02 0.02 0.01 0.01 0.01 0.02 0.02 0.04 0.07 0.10 0.07 0.06 0.06 0.04 0.02 0.02 0.02 0.02 0.03 0.02 0.01 0.01
0.00 0.00 0.00 0.00 0.00 0.00 0.00 0.00 0.00 0.01 0.01 0.02 0.02 0.03 0.02 0.02 0.04 0.03 0.01 0.02 0.02 0.01 0.01 0.01 0.01 0.01 0.01 0.01 0.01 0.02 0.03 0.03 0.03 0.03 0.04 0.05 0.05 0.05 0.03 0.03 0.05 0.04 0.03 0.02
0.01 0.00 0.00 0.00 0.00 0.00 0.00 0.00 0.01 0.01 0.01 0.01 0.02 0.02 0.01 0.01 0.02 0.02 0.01 0.01 0.01 0.01 0.04 0.05 0.02 0.02 0.01 0.01 0.02 0.02 0.02 0.02 0.01 0.01 0.02 0.02 0.03 0.04 0.04 0.04 0.04 0.04 0.03 0.03
0.00 0.00 0.00 0.00 0.00 0.00 0.00 0.00 0.00 0.01 0.01 0.01 0.01 0.02 0.02 0.01 0.02 0.02 0.01 0.01 0.01 0.01 0.04 0.04 0.02 0.02 0.03 0.03 0.03 0.02 0.02 0.01 0.01 0.01 0.01 0.02 0.03 0.04 0.04 0.04 0.06 0.06 0.06 0.05
0.01 0.01 0.00 0.00 0.00 0.01 0.01 0.01 0.00 0.01 0.01 0.02 0.02 0.04 0.04 0.02 0.03 0.03 0.02 0.01 0.01 0.02 0.02 0.03 0.06 0.06 0.05 0.07 0.09 0.05 0.02 0.02 0.02 0.02 0.02 0.02 0.02 0.03 0.04 0.04 0.04 0.05 0.04 0.04
0.00 0.01 0.00 0.00 0.00 0.01 0.01 0.00 0.01 0.01 0.01 0.02 0.03 0.03 0.04 0.04 0.03 0.02 0.02 0.02 0.02 0.02 0.02 0.06 0.10 0.09 0.06 0.07 0.09 0.09 0.05 0.03 0.03 0.02 0.01 0.01 0.01 0.01 0.02 0.04 0.05 0.04 0.05 0.04
0.00 0.00 0.00 0.01 0.01 0.01 0.01 0.00 0.00 0.00 0.01 0.01 0.04 0.05 0.02 0.02 0.01 0.01 0.01 0.02 0.02 0.01 0.02 0.06 0.11 0.10 0.06 0.04 0.05 0.04 0.04 0.04 0.05 0.04 0.04 0.03 0.03 0.02 0.02 0.02 0.02 0.04 0.05 0.05
0.00 0.00 0.00 0.01 0.01 0.00 0.00 0.00 0.00 0.00 0.00 0.01 0.02 0.02 0.02 0.02 0.02 0.01 0.00 0.01 0.01 0.01 0.02 0.06 0.13 0.14 0.04 0.03 0.05 0.04 0.03 0.03 0.04 0.04 0.06 0.08 0.06 0.04 0.03 0.02 0.02 0.02 0.04 0.04
0.00 0.00 0.00 0.01 0.01 0.00 0.00 0.00 0.01 0.00 0.01 0.01 0.01 0.02 0.02 0.02 0.02 0.01 0.00 0.00 0.01 0.01 0.02 0.05 0.10 0.06 0.03 0.03 0.04 0.04 0.04 0.07 0.07 0.05 0.08 0.11 0.09 0.06 0.05 0.04 0.03 0.03 0.03 0.04
0.00 0.00 0.00 0.00 0.01 0.00 0.00 0.00 0.00 0.01 0.01 0.01 0.01 0.01 0.02 0.02 0.02 0.01 0.00 0.01 0.02 0.01 0.01 0.02 0.02 0.01 0.03 0.04 0.04 0.03 0.04 0.06 0.12 0.17 0.14 0.11 0.09 0.08 0.06 0.03 0.03 0.03 0.03 0.04
0.00 0.00 0.00 0.00 0.00 0.00 0.00 0.00 0.00 0.00 0.01 0.01 0.02 0.02 0.02 0.01 0.01 0.01 0.00 0.00 0.01 0.01 0.02 0.04 0.03 0.03 0.03 0.04 0.03 0.03 0.02 0.03 0.06 0.15 0.19 0.16 0.10 0.07 0.06 0.05 0.04 0.05 0.05 0.06
0.00 0.00 0.00 0.00 0.00 0.00 0.00 0.00 0.00 0.00 0.00 0.00 0.01 0.02 0.01 0.01 0.01 0.01 0.01 0.01 0.01 0.01 0.05 0.13 0.10 0.03 0.04 0.05 0.05 0.04 0.04 0.04 0.05 0.09 0.13 0.14 0.11 0.07 0.06 0.06 0.06 0.06 0.06 0.06
0.00 0.00 0.00 0.01 0.02 0.01 0.00 0.00 0.00 0.00 0.00 0.00 0.00 0.01 0.01 0.01 0.01 0.01 0.01 0.01 0.01 0.01 0.03 0.11 0.07 0.02 0.02 0.02 0.02 0.04 0.05 0.05 0.06 0.07 0.07 0.08 0.08 0.05 0.06 0.07 0.07 0.07 0.07 0.06
0.00 0.00 0.00 0.01 0.02 0.03 0.01 0.00 0.00 0.00 0.00 0.00 0.00 0.01 0.01 0.01 0.01 0.01 0.01 0.01 0.01 0.01 0.02 0.06 0.03 0.02 0.02 0.01 0.02 0.02 0.02 0.02 0.03 0.03 0.03 0.03 0.04 0.04 0.04 0.07 0.09 0.08 0.08 0.08
0.00 0.00 0.00 0.00 0.00 0.01 0.01 0.00 0.00 0.00 0.00 0.01 0.01 0.00 0.00 0.00 0.00 0.01 0.01 0.01 0.01 0.01 0.02 0.03 0.02 0.01 0.01 0.02 0.01 0.01 0.01 0.02 0.02 0.03 0.04 0.04 0.04 0.05 0.05 0.05 0.05 0.07 0.08 0.08
0.00 0.00 0.00 0.00 0.00 0.00 0.00 0.00 0.00 0.00 0.01 0.02 0.01 0.01 0.01 0.00 0.00 0.01 0.01 0.01 0.01 0.02 0.02 0.02 0.02 0.02 0.01 0.01 0.01 0.01 0.01 0.02 0.02 0.03 0.03 0.05 0.05 0.06 0.08 0.09 0.10 0.09 0.10 0.10
0.00 0.00 0.00 0.00 0.01 0.00 0.00 0.00 0.00 0.01 0.01 0.01 0.01 0.01 0.01 0.00 0.00 0.01 0.01 0.01 0.01 0.02 0.02 0.01 0.01 0.01 0.01 0.01 0.01 0.02 0.02 0.03 0.03 0.04 0.04 0.05 0.07 0.08 0.11 0.14 0.15 0.14 0.13 0.10
0.00 0.00 0.00 0.01 0.01 0.01 0.00 0.00 0.00 0.01 0.01 0.01 0.01 0.01 0.01 0.01 0.01 0.01 0.01 0.01 0.02 0.02 0.01 0.01 0.01 0.01 0.01 0.01 0.02 0.02 0.02 0.03 0.03 0.04 0.05 0.07 0.10 0.13 0.15 0.18 0.17 0.12 0.11 0.10
0.00 0.00 0.00 0.00 0.01 0.01 0.01 0.01 0.00 0.00 0.01 0.01 0.02 0.03 0.03 0.02 0.02 0.02 0.02 0.01 0.01 0.01 0.01 0.01 0.01 0.01 0.01 0.01 0.02 0.02 0.03 0.03 0.04 0.05 0.06 0.10 0.14 0.15 0.17 0.17 0.16 0.13 0.10 0.09
0.00 0.00 0.00 0.01 0.01 0.01 0.01 0.01 0.01 0.01 0.01 0.01 0.02 0.05 0.07 0.07 0.07 0.05 0.04 0.02 0.01 0.01 0.01 0.01 0.01 0.01 0.01 0.01 0.02 0.03 0.03 0.04 0.04 0.04 0.04 0.05 0.07 0.09 0.11 0.11 0.10 0.09 0.08 0.06
0.01 0.01 0.01 0.01 0.01 0.01 0.01 0.01 0.01 0.01 0.01 0.01 0.01 0.01 0.02 0.04 0.04 0.03 0.03 0.03 0.03 0.02 0.02 0.02 0.02 0.01 0.01 0.00 0.00 0.01 0.01 0.02 0.02 0.02 0.03 0.04 0.04 0.06 0.07 0.07 0.07 0.06 0.06 0.06
0.01 0.01 0.03 0.03 0.02 0.02 0.01 0.00 0.00 0.00 0.00 0.01 0.01 0.01 0.01 0.01 0.01 0.01 0.01 0.02 0.02 0.02 0.02 0.02 0.01 0.01 0.01 0.01 0.00 0.00 0.01 0.02 0.03 0.04 0.04 0.05 0.06 0.07 0.06 0.06 0.06 0.06 0.05 0.07
MSLP
1009.97 1010.85 1011.53 1012.01 1012.31 1012.47 1012.54 1012.55 1012.52 1012.45 1012.34 1012.17 1011.94 1011.66 1011.38 1011.12 1010.95 1010.88 1010.94 1011.11 1011.34 1011.61 1011.83 1011.97 1012.00 1011.94 1011.79 1011.62 1011.48 1011.40 1011.41 1011.52 1011.69 1011.89 1012.07 1012.20 1012.26 1012.23 1012.15 1012.04 1011.95 1011.90 1011.93 1012.02
1010.67 1011.34 1011.78 1012.02 1012.13 1012.16 1012.19 1012.23 1012.29 1012.34 1012.34 1012.25 1012.06 1011.77 1011.43 1011.09 1010.83 1010.71 1010.74 1010.93 1011.24 1011.60 1011.93 1012.17 1012.28 1012.25 1012.11 1011.92 1011.74 1011.62 1011.60 1011.69 1011.87 1012.09 1012.30 1012.44 1012.49 1012.45 1012.32 1012.15 1011.99 1011.89 1011.86 1011.92
1011.16 1011.58 1011.77 1011.79 1011.74 1011.71 1011.75 1011.88 1012.09 1012.31 1012.46 1012.47 1012.31 1011.98 1011.54 1011.07 1010.66 1010.42 1010.38 1010.55 1010.89 1011.33 1011.79 1012.15 1012.38 1012.44 1012.36 1012.19 1012.00 1011.86 1011.82 1011.91 1012.09 1012.32 1012.55 1012.71 1012.78 1012.72 1012.58 1012.37 1012.17 1012.02 1011.94 1011.97
1011.44 1011.62 1011.59 1011.44 1011.29 1011.25 1011.38 1011.68 1012.09 1012.50 1012.81 1012.91 1012.76 1012.35 1011.76 1011.10 1010.49 1010.06 1009.88 1009.99 1010.34 1010.85 1011.43 1011.94 1012.31 1012.50 1012.52 1012.41 1012.25 1012.11 1012.07 1012.14 1012.31 1012.56 1012.80 1012.99 1013.08 1013.05 1012.90 1012.69 1012.47 1012.28 1012.17 1012.15
1011.52 1011.51 1011.30 1011.05 1010.89 1010.92 1011.20 1011.71 1012.35 1012.97 1013.44 1013.61 1013.44 1012.92 1012.13 1011.23 1010.36 1009.70 1009.35 1009.34 1009.67 1010.24 1010.92 1011.59 1012.13 1012.47 1012.61 1012.59 1012.48 1012.36 1012.31 1012.37 1012.53 1012.77 1013.03 1013.25 1013.37 1013.37 1013.26 1013.07 1012.85 1012.65 1012.51 1012.45
1011.44 1011.27 1010.97 1010.69 1010.58 1010.76 1011.24 1011.99 1012.86 1013.69 1014.28 1014.51 1014.28 1013.62 1012.62 1011.45 1010.31 1009.40 1008.84 1008.72 1009.00 1009.60 1010.39 1011.20 1011.90 1012.40 1012.68 1012.76 1012.70 1012.60 1012.54 1012.58 1012.72 1012.95 1013.21 1013.45 1013.62 1013.68 1013.62 1013.47 1013.27 1013.08 1012.92 1012.82
1011.21 1010.94 1010.61 1010.37 1010.38 1010.73 1011.44 1012.42 1013.51 1014.50 1015.20 1015.44 1015.15 1014.34 1013.13 1011.71 1010.32 1009.18 1008.44 1008.19 1008.43 1009.05 1009.92 1010.85 1011.69 1012.34 1012.74 1012.90 1012.90 1012.81 1012.74 1012.74 1012.85 1013.06 1013.33 1013.59 1013.80 1013.92 1013.92 1013.83 1013.67 1013.50 1013.34 1013.21
1010.82 1010.52 1010.23 1010.09 1010.25 1010.79 1011.69 1012.87 1014.12 1015.24 1015.99 1016.22 1015.86 1014.93 1013.55 1011.95 1010.37 1009.05 1008.17 1007.83 1008.01 1008.65 1009.57 1010.59 1011.54 1012.29 1012.78 1013.02 1013.05 1012.97 1012.88 1012.84 1012.92 1013.10 1013.36 1013.64 1013.89 1014.06 1014.12 1014.09 1013.99 1013.85 1013.70 1013.56
1010.28 1010.02 1009.81 1009.81 1010.13 1010.83 1011.89 1013.19 1014.54 1015.70 1016.47 1016.67 1016.25 1015.23 1013.76 1012.06 1010.38 1008.97 1008.02 1007.62 1007.78 1008.41 1009.36 1010.42 1011.43 1012.24 1012.79 1013.06 1013.12 1013.04 1012.92 1012.86 1012.90 1013.05 1013.30 1013.59 1013.86 1014.08 1014.20 1014.23 1014.18 1014.07 1013.94 1013.81
1009.64 1009.47 1009.38 1009.52 1009.97 1010.79 1011.93 1013.28 1014.63 1015.77 1016.50 1016.66 1016.20 1015.16 1013.67 1011.97 1010.30 1008.90 1007.95 1007.55 1007.70 1008.32 1009.26 1010.32 1011.33 1012.15 1012.72 1013.01 1013.07 1012.99 1012.86 1012.78 1012.79 1012.92 1013.16 1013.45 1013.74 1013.99 1014.16 1014.23 1014.22 1014.14 1014.04 1013.92
1008.93 1008.90 1008.96 1009.23 1009.78 1010.65 1011.79 1013.07 1014.34 1015.38 1016.01 1016.12 1015.65 1014.64 1013.24 1011.64 1010.08 1008.78 1007.91 1007.56 1007.72 1008.31 1009.21 1010.22 1011.19 1011.98 1012.52 1012.81 1012.87 1012.80 1012.69 1012.61 1012.62 1012.74 1012.96 1013.25 1013.55 1013.80 1013.99 1014.09 1014.11 1014.06 1013.98 1013.88
1008.26 1008.39 1008.61 1008.98 1009.58 1010.43 1011.47 1012.61 1013.70 1014.58 1015.09 1015.13 1014.66 1013.75 1012.49 1011.08 1009.71 1008.59 1007.86 1007.58 1007.76 1008.32 1009.14 1010.07 1010.95 1011.67 1012.18 1012.46 1012.54 1012.50 1012.42 1012.37 1012.41 1012.54 1012.76 1013.04 1013.32 1013.57 1013.76 1013.86 1013.89 1013.86 1013.80 1013.73
1007.71 1008.02 1008.38 1008.83 1009.43 1010.18 1011.05 1011.98 1012.83 1013.49 1013.84 1013.81 1013.37 1012.57 1011.51 1010.33 1009.22 1008.32 1007.75 1007.56 1007.76 1008.28 1009.00 1009.82 1010.59 1011.24 1011.70 1011.97 1012.09 1012.11 1012.10 1012.11 1012.19 1012.35 1012.58 1012.85 1013.11 1013.33 1013.49 1013.58 1013.61 1013.58 1013.54 1013.49
1007.38 1007.85 1008.32 1008.81 1009.35 1009.96 1010.62 1011.27 1011.85 1012.26 1012.43 1012.31 1011.90 1011.23 1010.38 1009.47 1008.63 1007.96 1007.57 1007.47 1007.68 1008.14 1008.76 1009.45 1010.11 1010.67 1011.10 1011.39 1011.57 1011.67 1011.75 1011.86 1012.01 1012.21 1012.45 1012.70 1012.94 1013.12 1013.24 1013.30 1013.31 1013.29 1013.25 1013.24
1007.30 1007.91 1008.45 1008.94 1009.39 1009.82 1010.23 1010.59 1010.86 1011.02 1011.00 1010.80 1010.41 1009.87 1009.23 1008.57 1007.98 1007.54 1007.30 1007.29 1007.50 1007.90 1008.41 1008.98 1009.53 1010.03 1010.43 1010.75 1011.00 1011.21 1011.41 1011.62 1011.85 1012.10 1012.36 1012.60 1012.80 1012.94 1013.02 1013.05 1013.03 1013.01 1012.99 1012.99
1007.49 1008.18 1008.75 1009.19 1009.52 1009.76 1009.91 1009.98 1009.97 1009.87 1009.68 1009.40 1009.03 1008.59 1008.12 1007.68 1007.31 1007.06 1006.96 1007.01 1007.22 1007.55 1007.97 1008.43 1008.89 1009.33 1009.73 1010.10 1010.43 1010.75 1011.06 1011.38 1011.69 1011.99 1012.27 1012.49 1012.66 1012.76 1012.81 1012.80 1012.78 1012.75 1012.75 1012.78
1007.89 1008.60 1009.14 1009.51 1009.71 1009.74 1009.66 1009.47 1009.20 1008.89 1008.55 1008.18 1007.81 1007.45 1007.13 1006.86 1006.66 1006.56 1006.55 1006.65 1006.85 1007.12 1007.46 1007.83 1008.23 1008.64 1009.04 1009.46 1009.87 1010.29 1010.70 1011.11 1011.49 1011.83 1012.11 1012.32 1012.47 1012.54 1012.56 1012.55 1012.53 1012.52 1012.54 1012.59
1008.43 1009.09 1009.56 1009.82 1009.87 1009.73 1009.44 1009.04 1008.58 1008.09 1007.62 1007.19 1006.81 1006.51 1006.28 1006.13 1006.05 1006.05 1006.11 1006.24 1006.42 1006.65 1006.92 1007.23 1007.59 1007.97 1008.39 1008.84 1009.32 1009.81 1010.30 1010.76 1011.18 1011.53 1011.82 1012.02 1012.15 1012.21 1012.23 1012.23 1012.23 1012.26 1012.32 1012.41
1008.99 1009.54 1009.89 1010.03 1009.95 1009.67 1009.23 1008.68 1008.08 1007.47 1006.91 1006.43 1006.05 1005.77 1005.59 1005.51 1005.50 1005.56 1005.66 1005.80 1005.97 1006.17 1006.40 1006.67 1007.00 1007.37 1007.79 1008.27 1008.77 1009.29 1009.81 1010.29 1010.71 1011.07 1011.34 1011.53 1011.66 1011.73 1011.77 1011.82 1011.87 1011.95 1012.06 1012.19
1009.46 1009.86 1010.08 1010.10 1009.91 1009.52 1008.99 1008.35 1007.67 1007.00 1006.40 1005.89 1005.49 1005.22 1005.07 1005.02 1005.04 1005.12 1005.24 1005.39 1005.55 1005.73 1005.94 1006.20 1006.50 1006.86 1007.27 1007.74 1008.23 1008.74 1009.24 1009.70 1010.10 1010.42 1010.68 1010.86 1011.00 1011.10 1011.19 1011.29 1011.42 1011.57 1011.74 1011.92
1009.77 1010.01 1010.09 1009.99 1009.72 1009.28 1008.71 1008.05 1007.35 1006.67 1006.06 1005.54 1005.14 1004.87 1004.71 1004.66 1004.69 1004.78 1004.90 1005.05 1005.21 1005.39 1005.60 1005.84 1006.13 1006.46 1006.85 1007.28 1007.73 1008.19 1008.62 1009.02 1009.37 1009.65 1009.87 1010.06 1010.21 1010.35 1010.51 1010.69 1010.90 1011.13 1011.37 1011.59
1009.88 1009.95 1009.90 1009.72 1009.40 1008.95 1008.39 1007.76 1007.10 1006.46 1005.87 1005.36 1004.97 1004.69 1004.53 1004.47 1004.49 1004.56 1004.69 1004.83 1005.00 1005.19 1005.40 1005.64 1005.91 1006.22 1006.57 1006.93 1007.31 1007.68 1008.03 1008.34 1008.61 1008.83 1009.03 1009.21 1009.38 1009.58 1009.80 1010.07 1010.36 1010.66 1010.97 1011.24
1009.78 1009.70 1009.55 1009.31 1008.98 1008.55 1008.05 1007.49 1006.91 1006.33 1005.80 1005.34 1004.96 1004.68 1004.51 1004.43 1004.43 1004.50 1004.62 1004.78 1004.97 1005.17 1005.39 1005.64 1005.90 1006.17 1006.46 1006.75 1007.03 1007.29 1007.53 1007.75 1007.93 1008.10 1008.26 1008.44 1008.64 1008.88 1009.17 1009.50 1009.87 1010.24 1010.59 1010.89
1009.49 1009.30 1009.07 1008.80 1008.48 1008.12 1007.70 1007.24 1006.76 1006.29 1005.83 1005.42 1005.07 1004.81 1004.63 1004.55 1004.54 1004.61 1004.74 1004.91 1005.12 1005.35 1005.60 1005.84 1006.09 1006.33 1006.55 1006.76 1006.94 1007.10 1007.23 1007.35 1007.45 1007.57 1007.70 1007.87 1008.10 1008.38 1008.71 1009.10 1009.50 1009.91 1010.29 1010.61
1009.06 1008.78 1008.50 1008.23 1007.95 1007.66 1007.34 1007.00 1006.64 1006.28 1005.91 1005.58 1005.28 1005.05 1004.88 1004.81 1004.81 1004.89 1005.04 1005.24 1005.48 1005.74 1006.00 1006.26 1006.49 1006.70 1006.86 1006.99 1007.08 1007.14 1007.18 1007.21 1007.25 1007.32 1007.43 1007.60 1007.84 1008.14 1008.50 1008.91 1009.33 1009.75 1010.13 1010.44
1008.53 1008.19 1007.89 1007.62 1007.39 1007.18 1006.97 1006.76 1006.53 1006.28 1006.02 1005.77 1005.54 1005.35 1005.23 1005.18 1005.21 1005.32 1005.50 1005.74 1006.01 1006.31 1006.60 1006.86 1007.08 1007.26 1007.38 1007.44 1007.46 1007.44 1007.40 1007.38 1007.37 1007.41 1007.51 1007.67 1007.91 1008.22 1008.59 1008.98 1009.39 1009.78 1010.13 1010.42
Thickness
5834 5814 5801 5809 5817 5815 5810 5802 5798 5810 5826 5816 5805 5804 5810 5816 5814 5812 5809 5809 5808 5809 5812 5812 5810 5806 5802 5798 5794 5791 5789 5787 5784 5781 5778 5775 5774 5774 5774 5774 5774 5775 5774 5774
5810 5804 5823 5832 5830 5822 5813 5802 5800 5813 5827 5815 5803 5804 5814 5817 5817 5818 5815 5813 5812 5809 5808 5809 5808 5806 5803 5799 5795 5793 5790 5788 5786 5783 5781 5779 5777 5775 5775 5775 5775 5775 5775 5775
5803 5818 5836 5830 5822 5813 5809 5804 5804 5805 5815 5816 5804 5792 5801 5813 5819 5820 5821 5821 5819 5816 5811 5810 5808 5806 5804 5800 5797 5796 5792 5790 5788 5786 5782 5780 5777 5775 5773 5773 5774 5776 5775 5775
5813 5830 5831 5823 5819 5817 5801 5823 5822 5814 5798 5784 5796 5767 5789 5802 5807 5813 5817 5818 5819 5819 5816 5813 5810 5807 5805 5803 5801 5798 5794 5791 5789 5786 5782 5777 5773 5770 5772 5773 5774 5775 5775 5774
5809 5825 5823 5817 5825 5827 5820 5835 5826 5816 5799 5784 5789 5771 5779 5798 5796 5807 5817 5820 5822 5822 5820 5817 5814 5811 5808 5806 5802 5799 5796 5792 5790 5787 5784 5779 5775 5774 5774 5774 5773 5773 5773 5773
5819 5835 5834 5831 5840 5840 5835 5825 5813 5799 5782 5763 5781 5772 5771 5789 5801 5809 5817 5821 5822 5823 5821 5818 5816 5812 5809 5806 5803 5799 5795 5792 5790 5787 5784 5780 5777 5775 5773 5772 5770 5770 5770 5770
5803 5819 5835 5842 5826 5830 5822 5789 5762 5757 5747 5754 5781 5775 5775 5805 5817 5818 5817 5821 5824 5823 5820 5816 5813 5810 5807 5804 5802 5799 5795 5791 5790 5787 5785 5782 5779 5776 5774 5772 5771 5769 5768 5768
5779 5785 5819 5833 5823 5812 5810 5790 5758 5745 5740 5751 5772 5767 5784 5815 5822 5823 5823 5824 5824 5820 5819 5817 5815 5812 5808 5806 5802 5799 5795 5791 5789 5787 5785 5783 5780 5777 5775 5773 5772 5770 5769 5769
5779 5785 5823 5835 5838 5824 5806 5793 5790 5763 5754 5745 5755 5771 5791 5810 5811 5813 5814 5817 5816 5816 5815 5813 5812 5810 5808 5806 5803 5800 5795 5792 5789 5787 5784 5782 5779 5777 5775 5773 5772 5771 5770 5769
5798 5786 5807 5826 5830 5824 5817 5805 5777 5760 5741 5733 5747 5757 5764 5785 5794 5801 5804 5807 5810 5811 5810 5809 5808 5806 5805 5805 5803 5800 5796 5792 5789 5786 5783 5781 5779 5777 5774 5772 5769 5768 5768 5767
5802 5781 5789 5802 5800 5796 5801 5794 5776 5756 5752 5734 5730 5747 5788 5789 5794 5796 5800 5804 5805 5805 5804 5804 5804 5803 5802 5801 5799 5796 5794 5790 5787 5784 5780 5778 5776 5775 5772 5770 5768 5766 5765 5764
5796 5775 5766 5784 5807 5815 5805 5792 5774 5755 5749 5743 5735 5747 5798 5798 5800 5801 5800 5803 5803 5802 5801 5801 5800 5799 5797 5795 5793 5792 5790 5787 5785 5782 5778 5775 5774 5772 5770 5767 5766 5764 5762 5761
5793 5767 5747 5755 5773 5790 5790 5791 5782 5766 5750 5739 5732 5748 5791 5794 5795 5797 5797 5798 5797 5796 5795 5794 5792 5790 5790 5789 5787 5786 5784 5783 5781 5779 5775 5772 5770 5768 5767 5765 5763 5761 5759 5757
5799 5764 5751 5744 5753 5771 5774 5781 5784 5767 5745 5741 5746 5754 5773 5781 5784 5787 5790 5792 5791 5790 5789 5786 5784 5783 5783 5783 5782 5780 5779 5778 5777 5773 5770 5767 5766 5765 5764 5762 5759 5757 5756 5753
5786 5760 5763 5766 5775 5778 5774 5775 5779 5771 5762 5750 5754 5758 5768 5777 5781 5783 5785 5785 5783 5780 5780 5780 5778 5777 5776 5776 5775 5774 5772 5772 5771 5768 5765 5764 5763 5762 5759 5757 5755 5753 5751 5749
5771 5759 5760 5760 5772 5772 5767 5772 5774 5773 5769 5762 5760 5757 5773 5779 5780 5778 5778 5777 5774 5774 5775 5776 5775 5773 5771 5770 5769 5768 5767 5766 5765 5762 5760 5759 5756 5754 5752 5750 5748 5746 5745 5743
5756 5749 5738 5734 5754 5755 5743 5761 5764 5761 5764 5762 5750 5756 5767 5767 5768 5768 5769 5769 5767 5768 5770 5769 5768 5767 5766 5765 5764 5761 5761 5760 5758 5756 5754 5752 5750 5746 5745 5743 5741 5739 5738 5736
5749 5738 5724 5722 5732 5718 5738 5766 5768 5759 5758 5761 5760 5761 5763 5763 5763 5765 5766 5763 5761 5761 5761 5761 5761 5760 5759 5759 5757 5756 5754 5751 5749 5747 5745 5743 5741 5739 5737 5734 5733 5731 5730 5728
5754 5736 5717 5707 5707 5715 5738 5754 5756 5747 5738 5751 5752 5753 5756 5759 5754 5750 5757 5759 5757 5756 5754 5754 5754 5753 5751 5749 5748 5746 5743 5741 5738 5737 5736 5735 5734 5731 5729 5727 5725 5724 5723 5721
5741 5733 5715 5703 5701 5697 5721 5751 5761 5747 5722 5742 5745 5744 5746 5745 5727 5731 5747 5750 5749 5748 5746 5745 5745 5744 5741 5739 5738 5734 5731 5729 5727 5727 5727 5727 5726 5723 5721 5719 5718 5717 5715 5713
5715 5711 5704 5697 5694 5702 5729 5747 5749 5715 5711 5734 5738 5738 5737 5732 5730 5735 5740 5739 5739 5738 5736 5735 5733 5731 5729 5729 5727 5722 5719 5717 5718 5718 5718 5717 5716 5715 5713 5712 5710 5708 5705 5703
5698 5693 5690 5686 5682 5690 5727 5732 5720 5715 5726 5730 5731 5732 5730 5728 5729 5729 5728 5728 5727 5725 5725 5724 5721 5718 5718 5717 5714 5710 5707 5708 5708 5707 5706 5705 5704 5704 5705 5702 5700 5698 5696 5693
5693 5693 5689 5687 5687 5704 5717 5720 5721 5722 5719 5720 5721 5723 5723 5719 5717 5717 5716 5716 5716 5715 5714 5712 5709 5706 5705 5705 5703 5699 5698 5698 5696 5695 5693 5693 5693 5692 5691 5690 5688 5686 5685 5683
5690 5696 5688 5684 5691 5700 5707 5711 5714 5716 5715 5715 5716 5715 5714 5709 5708 5706 5704 5703 5703 5703 5701 5699 5697 5694 5692 5692 5691 5690 5689 5688 5686 5683 5682 5681 5680 5679 5679 5679 5677 5675 5674 5673
5683 5684 5676 5673 5683 5689 5695 5699 5702 5705 5706 5706 5706 5705 5704 5700 5697 5696 5693 5691 5691 5690 5689 5687 5684 5681 5680 5680 5679 5680 5679 5678 5674 5672 5670 5669 5668 5667 5666 5666 5665 5665 5665 5665
5674 5673 5668 5666 5676 5676 5680 5690 5695 5694 5693 5694 5693 5692 5692 5691 5688 5686 5682 5681 5680 5679 5677 5675 5673 5671 5670 5669 5668 5668 5668 5667 5663 5660 5659 5657 5656 5656 5655 5654 5654 5654 5654 5655